Regional Weather Roundup
Issued by NWS

Home | Current Version | Previous Version | Graphics & Text | Print | Product List | Glossary On
Versions: 1 2 3 4 5 6 7 8 9 10 11 12 13 14 15 16 17 18 19 20 21 22 23 24 25 26 27 28 29 30 31 32 33 34 35 36 37 38 39 40 41 42 43 44 45 46 47 48 49 50
199
ASUS43 KLOT 300809
RWRIL

ILLINOIS REGIONAL WEATHER ROUNDUP
NATIONAL WEATHER SERVICE CHICAGO/ROMEOVILLE IL
300 AM CDT TUE MAY 30 2017

NOTE: "FAIR" INDICATES FEW OR NO CLOUDS BELOW 12,000 FEET WITH NO
SIGNIFICANT WEATHER AND/OR OBSTRUCTIONS TO VISIBILITY.

* THESE STATIONS ARE NOT UNDER NWS QUALITY CONTROL. THEY ALSO MAY NOT
  REPORT WEATHER SUCH AS PRECIPITATION OR FOG.

ILZ001-002-007-009-015-016-024-300900-
NORTHWEST ILLINOIS

CITY           SKY/WX    TMP DP  RH WIND       PRES   REMARKS
MOLINE           N/A     55  45  68 W6        29.95S
STERLING*      CLEAR     52  47  83 W7        29.94S
SAVANNA*       CLEAR     57  47  69 W7        29.94S
$$

ILZ003-004-008-010-011-017-018-300900-
NORTH CENTRAL ILLINOIS

CITY           SKY/WX    TMP DP  RH WIND       PRES   REMARKS
ROCKFORD       CLEAR     54  47  77 W7        29.93S
FREEPORT*      CLEAR     53  46  77 W7        29.94S
ROCHELLE*      CLEAR     51  47  84 W5        29.94R
DE KALB*       CLEAR     54  47  75 W8        29.93S
PERU*          CLEAR     55  45  68 W6        29.95S
$$

ILZ005-006-012>014-019>023-300900-
NORTHEAST ILLINOIS

CITY           SKY/WX    TMP DP  RH WIND       PRES   REMARKS
CHICAGO-OHARE  PTCLDY    56  47  71 W8        29.90S
CHICAGO-MIDWAY CLEAR     59  47  64 SW7       29.90S
AURORA         CLEAR     51  47  86 W5        29.93R
LANSING*       PTCLDY    56  48  74 W6        29.91F
JOLIET*        CLEAR     58  48  69 SW3       29.93S
WAUKEGAN       CLEAR     54  49  83 SW5       29.88S
DUPAGE AIRPORT CLEAR     53  48  83 W7        29.91S
KANKAKEE*      CLEAR     52  46  81 CALM      29.94S
WHEELING       CLEAR     58  48  69 W7        29.91S
MORRIS*        CLEAR     55  46  73 CALM      29.93R
ROMEOVILLE*    CLEAR     55  50  84 W8        29.92S
NORTHERLY ISL    N/A     61  46  57 SW5         N/A
$$

LMZ740>746-300900-
SOUTHERN LAKE MICHIGAN

STATION/POSITION SKY/WX   TEMP    WIND        PRES    VSBY  WAVE
                          AIR SEA DIR/SP/G                  HT/PER
                          (F)     (DEG/KT/KT) (MB)    (MI)  (FT/S)
WILMETTE HARBOR            54 53  230/  6/  6   N/A           0
HARRISON CRIB              64     260/  7/  7   N/A
BURNHAM HARBOR             61     220/  6       N/A
CALUMET HARBOR             61     240/  4/  6 1012.4R
BURNS HARBOR               62     220/  6/  7 1013.2S
MICHIGAN CITY              58     190/  3/  3   N/A
MICHIGAN CITY 6N           56 56  280/  2/  2   N/A           1
ST. JOSEPH                 59 60  210/  6/  8 1012.6          1/ 3
$$

ILZ025>027-034>036-040-047-049-050-058-095>099-300900-
WEST-CENTRAL ILLINOIS

CITY           SKY/WX    TMP DP  RH WIND       PRES   REMARKS
QUINCY         MOCLDY    59  46  62 W6        30.01R
GALESBURG*     CLEAR     56  46  69 W5          N/A
MACOMB*        CLEAR     54  46  76 W7        30.01R
JACKSONVILLE*  MOCLDY    57  50  78 CALM      29.99S
PITTSFIELD*    MOCLDY    59  53  78 W3        30.02R
$$

ILZ028>032-037-038-041>044-048-051>054-059>061-300900-
CENTRAL ILLINOIS

CITY           SKY/WX    TMP DP  RH WIND       PRES   REMARKS
PONTIAC        PTCLDY    57  49  76 W7        29.96S
BLOOMINGTON    CLEAR     58  44  60 W6        29.98S
DECATUR        MOCLDY    58  50  75 SW6       29.98S
PEORIA         CLEAR     54  48  80 CALM      29.97S
LACON*         CLEAR     53  48  81 CALM      29.95S
LINCOLN*       CLEAR     63  45  51 CALM      29.97S
SPRINGFIELD    MOCLDY    59  51  75 W5        29.99R
TAYLORVILLE    CLOUDY    58  53  84 SW3       29.99F
$$

ILZ033-039-045-046-055>057-062-063-300900-
EAST-CENTRAL ILLINOIS

CITY           SKY/WX    TMP DP  RH WIND       PRES   REMARKS
CHAMPAIGN      CLEAR     57  46  66 W7        29.97R
RANTOUL*       CLEAR     63  46  53 W7        29.96S
MATTOON        PTCLDY    62  51  67 W5        29.98S
PARIS*         CLEAR     57  52  84 SW6       29.99R
$$

ILZ079-100>102-300900-
SOUTHWEST ILLINOIS

CITY           SKY/WX    TMP DP  RH WIND       PRES   REMARKS
ALTON          PTCLDY    56  54  91 CALM      30.01R
BELLEVILLE     CLEAR     59  57  94 CALM      30.01S FOG
CAHOKIA*       PTCLDY    58  56  93 CALM      30.01R FOG
SPARTA*        CLEAR     60  58  91 CALM      30.02R
$$

ILZ064>066-069>071-074>076-080>082-084>086-088>090-092>094-300900-
SOUTH-CENTRAL ILLINOIS

CITY           SKY/WX    TMP DP  RH WIND       PRES   REMARKS
CARBONDALE     CLEAR     58  58 100 CALM      30.01S
CAIRO*         PTCLDY    66  64  94 CALM      30.01S
EFFINGHAM*     PTCLDY    55  55 100 CALM      30.01R
MARION         PTCLDY    61  61 100 CALM      30.02S
MT. VERNON     FOG       54  54 100 CALM      30.01S VSB 1/2
CENTRALIA*     PTCLDY    58  58  99 CALM      30.00S
SALEM*         CLEAR     60  58  94 CALM      30.00R
METROPOLIS*    PTCLDY    62  62  99 CALM      30.02S FOG
$$

ILZ067-068-072-073-078-083-087-091-300900-
SOUTHEAST ILLINOIS

CITY           SKY/WX    TMP DP  RH WIND       PRES   REMARKS
LAWRENCEVILLE  CLEAR     58  55  90 S5        30.00S
FLORA*         CLOUDY    59  57  92 S5        30.00S
FAIRFIELD*     MOCLDY    58  57  99 CALM      30.00S
HARRISBURG*    FOG       59  59 100 CALM      30.02R VSB 1/4
ROBINSON*      CLEAR     56  54  91 CALM      30.00S
CARMI*         CLEAR     58  58 100 CALM      30.00S
$$

ABBREVIATIONS USED IN REMARKS
   TC - TEMPERATURE IN CELSIUS
  WCI - WIND CHILL INDEX
   HX - HEAT INDEX
  VSB - VISIBILITY
$$





USA.gov is the U.S. government's official web portal to all federal, state and local government web resources and services.